Regional Weather Roundup
Issued by NWS Sioux Falls, SD

Home | Current Version | Previous Version | Text Only | Print | Product List | Glossary On
Versions: 1 2 3 4 5 6 7 8 9 10 11 12 13 14 15 16 17 18 19 20 21 22 23 24 25 26 27 28 29 30 31 32 33 34 35 36 37 38 39 40 41 42 43 44 45 46 47 48 49 50
000
ASUS43 KFSD 241710
RWRFSD

WEATHER ROUNDUP FOR SE SOUTH DAKOTA/SW MINNESOTA/NW IOWA
NATIONAL WEATHER SERVICE SIOUX FALLS SD
1100 AM CST WED DEC 24 2014

NOTE: "FAIR" INDICATES FEW OR NO CLOUDS BELOW 12,000 FEET WITH NO
SIGNIFICANT WEATHER AND OR OBSTRUCTIONS TO VISIBILITY.


SDZ038>040-050-052>070-241800-
SOUTHEAST SOUTH DAKOTA

CITY           SKY/WX    TMP DP  RH WIND       PRES   REMARKS
CHAMBERLAIN    CLOUDY    24  24  98 S6        29.82F FOG     WCI  17
HURON          CLOUDY    25  23  92 W8        29.83F FOG     WCI  16
MADISON        FOG       23  23 100 NW10      29.82S VSB 1/4 WCI  12
MITCHELL       CLOUDY    26  25  96 W6        29.86F FOG     WCI  19
SIOUX FALLS    LGT SNOW  26  24  92 W8        29.84F FOG     WCI  18
WINNER         FAIR      23  14  68 SW9       29.81F WCI  13
YANKTON        CLOUDY    27  21  80 NW12      29.88F WCI  16
$$

MNZ071-072-080-081-089-090-097-098-241800-
SOUTHWEST MINNESOTA

CITY           SKY/WX    TMP DP  RH WIND       PRES   REMARKS
FAIRMONT       CLOUDY    32  27  80 NW10      29.77F WCI  24
JACKSON        CLOUDY    32  30  93 NW12      29.78F WCI  23
LUVERNE        CLOUDY    32  28  86 NW10      29.82F WCI  24
MARSHALL       CLOUDY    30  25  80 NW12      29.81F WCI  21
MONTEVIDEO     CLOUDY    30  30 100 N6        29.81F WCI  24
PIPESTONE      CLOUDY    28  27  93 NW7       29.80S FOG     WCI  21
REDWOOD FALLS  CLOUDY    32  30  92 NW8       29.78F WCI  25
TRACY          LGT SNOW  31  30  95 NW9       29.80F WCI  23
WINDOM         LGT SNOW  30  30 100 NW12      29.78F WCI  21
WORTHINGTON    CLOUDY    30 -17  12 NW13      29.79F WCI  20
$$

IAZ001>003-012>014-020>022-031-032-NEZ013-014-SDZ071-241800-
NORTHWEST IOWA

CITY           SKY/WX    TMP DP  RH WIND       PRES   REMARKS
CHEROKEE       CLOUDY    32  31  96 NW10      29.83F WCI  24
DENISON        MIX PCPN  32  32 100 NW14      29.82S WCI  22
ESTHERVILLE    CLOUDY    31  30  96 NW15      29.78F WCI  20
LE MARS        CLOUDY    30  28  93 NW12      29.85F WCI  21
ORANGE CITY    CLOUDY    30  28  93 NW9       29.82F WCI  22
SHELDON        CLOUDY    30  30 100 NW14      29.80F WCI  20
SIOUX CITY     CLOUDY    30  27  88 NW15      29.86F FOG     WCI  19
SPENCER        CLOUDY    33  28  81 NW10      29.80F WCI  25
STORM LAKE     CLOUDY    32  30  93 NW13G21   29.80F WCI  22
$$

ABBREVIATIONS USED IN REMARKS
   TC - TEMPERATURE IN CELSIUS
  WCI - WIND CHILL INDEX
   HX - HEAT INDEX
  VSB - VISIBILITY




USA.gov is the U.S. government's official web portal to all federal, state and local government web resources and services.